Time,TemperatureF,DewpointF,PressureIn,WindDirection,WindDirectionDegrees,WindSpeedMPH,WindSpeedGustMPH,Humidity,HourlyPrecipIn,Conditions,Clouds,dailyrainin,SoftwareType,DateUTC
2013-01-24 00:03:00,35.0,26.0,30.32,NW,312,10.0,20.0,69,0.00,,,0.00,,2013-01-24 05:03:00,
2013-01-24 00:12:00,35.0,26.0,30.32,NW,312,10.0,20.0,69,0.00,,,0.00,,2013-01-24 05:12:00,
2013-01-24 00:23:00,35.0,26.0,30.30,WNW,300,11.0,19.0,69,0.00,,,0.00,,2013-01-24 05:23:00,
2013-01-24 00:33:00,35.0,26.0,30.29,WSW,248,8.0,24.0,69,0.00,,,0.00,,2013-01-24 05:33:00,
2013-01-24 00:43:00,35.0,26.0,30.29,WSW,248,8.0,24.0,69,0.00,,,0.00,,2013-01-24 05:43:00,
2013-01-24 00:53:00,35.0,26.0,30.29,WNW,285,11.0,24.0,69,0.00,,,0.00,,2013-01-24 05:53:00,
2013-01-24 01:03:00,36.0,26.0,30.29,NW,323,10.0,27.0,68,0.00,,,0.00,,2013-01-24 06:03:00,
2013-01-24 01:12:00,36.0,26.0,30.29,NW,323,10.0,27.0,68,0.00,,,0.00,,2013-01-24 06:12:00,
2013-01-24 01:22:00,36.0,26.0,30.29,NW,323,10.0,27.0,68,0.00,,,0.00,,2013-01-24 06:22:00,
2013-01-24 01:32:00,36.0,28.0,30.27,West,281,11.0,28.0,72,0.00,,,0.00,,2013-01-24 06:32:00,
2013-01-24 01:42:00,36.0,28.0,30.27,West,281,11.0,28.0,72,0.00,,,0.00,,2013-01-24 06:42:00,
2013-01-24 01:53:00,36.0,29.0,30.26,NW,305,12.0,29.0,74,0.00,,,0.00,,2013-01-24 06:53:00,
2013-01-24 02:03:00,36.0,29.0,30.24,WSW,238,16.0,33.0,75,0.00,,,0.00,,2013-01-24 07:03:00,
2013-01-24 02:12:00,36.0,29.0,30.24,WSW,238,16.0,33.0,75,0.00,,,0.00,,2013-01-24 07:12:00,
2013-01-24 02:23:00,36.0,29.0,30.26,WNW,302,15.0,25.0,77,0.00,,,0.00,,2013-01-24 07:23:00,
2013-01-24 02:33:00,36.0,29.0,30.24,WNW,302,11.0,29.0,77,0.00,,,0.00,,2013-01-24 07:33:00,
2013-01-24 02:43:00,36.0,29.0,30.24,WNW,302,11.0,29.0,77,0.00,,,0.00,,2013-01-24 07:43:00,
2013-01-24 02:52:00,36.0,29.0,30.24,NW,315,16.0,28.0,77,0.00,,,0.00,,2013-01-24 07:52:00,
2013-01-24 03:03:00,36.0,29.0,30.24,NW,320,15.0,36.0,76,0.00,,,0.00,,2013-01-24 08:03:00,
2013-01-24 03:13:00,36.0,29.0,30.24,NW,320,15.0,36.0,76,0.00,,,0.00,,2013-01-24 08:13:00,
2013-01-24 03:23:00,36.0,29.0,30.24,North,351,13.0,31.0,76,0.00,,,0.00,,2013-01-24 08:23:00,
2013-01-24 03:33:00,36.0,29.0,30.22,SW,217,14.0,34.0,76,0.00,,,0.00,,2013-01-24 08:33:00,
2013-01-24 03:43:00,36.0,29.0,30.22,SW,217,14.0,34.0,76,0.00,,,0.00,,2013-01-24 08:43:00,
2013-01-24 03:53:00,36.0,29.0,30.22,NW,316,9.0,37.0,75,0.00,,,0.00,,2013-01-24 08:53:00,
2013-01-24 04:03:00,36.0,29.0,30.22,East,86,13.0,33.0,75,0.00,,,0.00,,2013-01-24 09:03:00,
2013-01-24 04:13:00,36.0,29.0,30.22,East,86,13.0,33.0,75,0.00,,,0.00,,2013-01-24 09:13:00,
2013-01-24 04:23:00,35.0,28.0,30.21,WNW,293,13.0,32.0,75,0.00,,,0.00,,2013-01-24 09:23:00,
2013-01-24 04:33:00,35.0,28.0,30.22,WNW,301,13.0,32.0,75,0.00,,,0.00,,2013-01-24 09:33:00,
2013-01-24 04:43:00,35.0,28.0,30.22,WNW,301,13.0,32.0,75,0.00,,,0.00,,2013-01-24 09:43:00,
2013-01-24 04:52:00,35.0,28.0,30.20,NW,323,13.0,37.0,75,0.00,,,0.00,,2013-01-24 09:52:00,
2013-01-24 05:03:00,35.0,28.0,30.20,WSW,256,9.0,25.0,76,0.00,,,0.00,,2013-01-24 10:03:00,
2013-01-24 05:12:00,35.0,28.0,30.20,WSW,256,9.0,25.0,76,0.00,,,0.00,,2013-01-24 10:12:00,
2013-01-24 05:23:00,35.0,28.0,30.21,NW,305,12.0,31.0,76,0.00,,,0.00,,2013-01-24 10:23:00,
2013-01-24 05:33:00,34.0,27.0,30.22,WNW,298,12.0,30.0,76,0.00,,,0.00,,2013-01-24 10:33:00,
2013-01-24 05:43:00,34.0,27.0,30.22,WNW,298,12.0,30.0,76,0.00,,,0.00,,2013-01-24 10:43:00,
2013-01-24 05:52:00,34.0,27.0,30.22,WNW,302,14.0,32.0,75,0.00,,,0.00,,2013-01-24 10:52:00,
2013-01-24 06:03:00,34.0,27.0,30.22,NW,322,14.0,33.0,74,0.00,,,0.00,,2013-01-24 11:03:00,
2013-01-24 06:12:00,34.0,27.0,30.22,NW,322,14.0,33.0,74,0.00,,,0.00,,2013-01-24 11:12:00,
2013-01-24 06:23:00,34.0,27.0,30.23,NW,316,8.0,30.0,74,0.00,,,0.00,,2013-01-24 11:23:00,
2013-01-24 06:33:00,33.0,25.0,30.23,West,278,10.0,25.0,73,0.00,,,0.00,,2013-01-24 11:33:00,
2013-01-24 06:43:00,33.0,25.0,30.23,West,278,10.0,25.0,73,0.00,,,0.00,,2013-01-24 11:43:00,
2013-01-24 06:53:00,33.0,25.0,30.23,WSW,246,17.0,36.0,71,0.00,,,0.00,,2013-01-24 11:53:00,
2013-01-24 07:03:00,33.0,24.0,30.23,WNW,295,18.0,40.0,69,0.00,,,0.00,,2013-01-24 12:03:00,
2013-01-24 07:12:00,33.0,24.0,30.23,WNW,295,18.0,40.0,69,0.00,,,0.00,,2013-01-24 12:12:00,
2013-01-24 07:23:00,33.0,25.0,30.23,West,279,13.0,31.0,71,0.00,,,0.00,,2013-01-24 12:23:00,
2013-01-24 07:33:00,33.0,24.0,30.23,WNW,299,16.0,37.0,69,0.00,,,0.00,,2013-01-24 12:33:00,
2013-01-24 07:43:00,33.0,24.0,30.23,WNW,299,16.0,37.0,69,0.00,,,0.00,,2013-01-24 12:43:00,
2013-01-24 07:53:00,32.0,22.0,30.24,West,278,13.0,36.0,65,0.00,,,0.00,,2013-01-24 12:53:00,
2013-01-24 08:03:00,32.0,21.0,30.24,West,281,15.0,32.0,64,0.00,,,0.00,,2013-01-24 13:03:00,
2013-01-24 08:13:00,32.0,21.0,30.24,West,281,15.0,32.0,64,0.00,,,0.00,,2013-01-24 13:13:00,
2013-01-24 08:23:00,32.0,21.0,30.25,West,276,11.0,29.0,63,0.00,,,0.00,,2013-01-24 13:23:00,
2013-01-24 08:33:00,32.0,20.0,30.24,West,281,12.0,35.0,61,0.00,,,0.00,,2013-01-24 13:33:00,
2013-01-24 08:43:00,32.0,20.0,30.24,West,281,12.0,35.0,61,0.00,,,0.00,,2013-01-24 13:43:00,
2013-01-24 08:53:00,32.0,20.0,30.26,NW,306,10.0,34.0,60,0.00,,,0.00,,2013-01-24 13:53:00,
2013-01-24 09:03:00,32.0,18.0,30.26,WNW,302,11.0,24.0,55,0.00,,,0.00,,2013-01-24 14:03:00,
2013-01-24 09:12:00,32.0,18.0,30.26,WNW,302,11.0,24.0,55,0.00,,,0.00,,2013-01-24 14:12:00,
2013-01-24 09:23:00,32.0,16.0,30.27,NW,326,18.0,32.0,52,0.00,,,0.00,,2013-01-24 14:23:00,
2013-01-24 09:33:00,32.0,15.0,30.28,WNW,295,9.0,30.0,49,0.00,,,0.00,,2013-01-24 14:33:00,
2013-01-24 09:43:00,32.0,15.0,30.28,WNW,295,9.0,30.0,49,0.00,,,0.00,,2013-01-24 14:43:00,
2013-01-24 09:53:00,32.0,14.0,30.30,WSW,248,9.0,23.0,47,0.00,,,0.00,,2013-01-24 14:53:00,
2013-01-24 10:04:00,32.0,13.0,30.29,SSE,167,4.0,17.0,44,0.00,,,0.00,,2013-01-24 15:04:00,
2013-01-24 10:13:00,32.0,13.0,30.29,SSE,167,4.0,17.0,44,0.00,,,0.00,,2013-01-24 15:13:00,
2013-01-24 10:23:00,33.0,11.0,30.30,West,263,11.0,21.0,39,0.00,,,0.00,,2013-01-24 15:23:00,
2013-01-24 10:33:00,33.0,11.0,30.30,West,263,11.0,21.0,39,0.00,,,0.00,,2013-01-24 15:33:00,
2013-01-24 10:43:00,33.0,8.0,30.31,SW,231,8.0,21.0,34,0.00,,,0.00,,2013-01-24 15:43:00,
2013-01-24 10:53:00,34.0,7.0,30.32,West,260,5.0,13.0,32,0.00,,,0.00,,2013-01-24 15:53:00,
2013-01-24 11:04:00,35.0,4.0,30.32,WNW,288,7.0,19.0,27,0.00,,,0.00,,2013-01-24 16:04:00,
2013-01-24 11:12:00,35.0,4.0,30.32,WNW,288,7.0,19.0,27,0.00,,,0.00,,2013-01-24 16:12:00,
2013-01-24 11:23:00,36.0,5.0,30.34,WSW,239,4.0,16.0,27,0.00,,,0.00,,2013-01-24 16:23:00,
2013-01-24 11:33:00,36.0,7.0,30.35,NNE,13,7.0,16.0,29,0.00,,,0.00,,2013-01-24 16:33:00,
2013-01-24 11:43:00,36.0,7.0,30.35,NNE,13,7.0,16.0,29,0.00,,,0.00,,2013-01-24 16:43:00,
2013-01-24 12:03:00,38.0,7.0,30.36,NNW,340,4.0,12.0,27,0.00,,,0.00,,2013-01-24 17:03:00,
2013-01-24 12:12:00,38.0,7.0,30.36,NNW,340,4.0,12.0,27,0.00,,,0.00,,2013-01-24 17:12:00,
2013-01-24 12:22:00,38.0,7.0,30.36,NNW,340,4.0,12.0,27,0.00,,,0.00,,2013-01-24 17:22:00,
2013-01-24 12:32:00,39.0,7.0,30.36,ENE,60,3.0,10.0,26,0.00,,,0.00,,2013-01-24 17:32:00,
2013-01-24 12:42:00,39.0,7.0,30.36,ENE,60,3.0,10.0,26,0.00,,,0.00,,2013-01-24 17:42:00,
2013-01-24 12:52:00,39.0,7.0,30.36,NNE,15,5.0,8.0,26,0.00,,,0.00,,2013-01-24 17:52:00,
2013-01-24 13:03:00,39.0,6.0,30.37,NE,39,6.0,11.0,25,0.00,,,0.00,,2013-01-24 18:03:00,
2013-01-24 13:12:00,39.0,4.0,30.37,North,357,5.0,12.0,23,0.00,,,0.00,,2013-01-24 18:12:00,
2013-01-24 13:23:00,39.0,4.0,30.37,North,357,5.0,12.0,23,0.00,,,0.00,,2013-01-24 18:23:00,
2013-01-24 13:33:00,40.0,5.0,30.37,NNE,22,3.0,6.0,23,0.00,,,0.00,,2013-01-24 18:33:00,
2013-01-24 13:42:00,40.0,5.0,30.37,NNE,22,3.0,6.0,23,0.00,,,0.00,,2013-01-24 18:42:00,
2013-01-24 13:53:00,39.0,3.0,30.38,NE,43,3.0,8.0,22,0.00,,,0.00,,2013-01-24 18:53:00,
2013-01-24 14:02:00,40.0,3.0,30.37,NW,322,4.0,9.0,21,0.00,,,0.00,,2013-01-24 19:02:00,
2013-01-24 14:13:00,40.0,3.0,30.37,NW,322,4.0,9.0,21,0.00,,,0.00,,2013-01-24 19:13:00,
2013-01-24 14:22:00,40.0,3.0,30.39,NW,322,4.0,7.0,21,0.00,,,0.00,,2013-01-24 19:22:00,
2013-01-24 14:33:00,40.0,3.0,30.39,NW,318,3.0,8.0,21,0.00,,,0.00,,2013-01-24 19:33:00,
2013-01-24 14:42:00,40.0,3.0,30.39,NW,318,3.0,8.0,21,0.00,,,0.00,,2013-01-24 19:42:00,
2013-01-24 14:52:00,41.0,3.0,30.38,NNE,19,3.0,7.0,20,0.00,,,0.00,,2013-01-24 19:52:00,
2013-01-24 15:02:00,40.0,3.0,30.39,NW,323,2.0,8.0,21,0.00,,,0.00,,2013-01-24 20:02:00,
2013-01-24 15:12:00,40.0,3.0,30.39,NW,323,2.0,8.0,21,0.00,,,0.00,,2013-01-24 20:12:00,
2013-01-24 15:22:00,40.0,1.0,30.39,NE,47,3.0,5.0,19,0.00,,,0.00,,2013-01-24 20:22:00,
2013-01-24 15:33:00,41.0,2.0,30.40,North,352,0.0,3.0,19,0.00,,,0.00,,2013-01-24 20:33:00,
2013-01-24 15:42:00,41.0,2.0,30.40,North,352,0.0,3.0,19,0.00,,,0.00,,2013-01-24 20:42:00,
2013-01-24 15:52:00,41.0,2.0,30.40,NNE,19,1.0,3.0,19,0.00,,,0.00,,2013-01-24 20:52:00,
2013-01-24 16:03:00,40.0,1.0,30.40,NNW,340,1.0,4.0,19,0.00,,,0.00,,2013-01-24 21:03:00,
2013-01-24 16:13:00,40.0,1.0,30.40,NNW,340,1.0,4.0,19,0.00,,,0.00,,2013-01-24 21:13:00,
2013-01-24 16:22:00,40.0,0.0,30.42,NNE,29,3.0,8.0,18,0.00,,,0.00,,2013-01-24 21:22:00,
2013-01-24 16:33:00,40.0,0.0,30.42,NNE,33,1.0,4.0,18,0.00,,,0.00,,2013-01-24 21:33:00,
2013-01-24 16:43:00,40.0,0.0,30.42,NNE,33,1.0,4.0,18,0.00,,,0.00,,2013-01-24 21:43:00,
2013-01-24 16:52:00,41.0,-2.0,30.42,NW,316,0.0,3.0,16,0.00,,,0.00,,2013-01-24 21:52:00,
2013-01-24 17:03:00,41.0,-3.0,30.42,North,6,0.0,2.0,15,0.00,,,0.00,,2013-01-24 22:03:00,
2013-01-24 17:12:00,41.0,-3.0,30.42,North,6,0.0,2.0,15,0.00,,,0.00,,2013-01-24 22:12:00,
2013-01-24 17:22:00,40.0,3.0,30.43,WNW,300,2.0,5.0,21,0.00,,,0.00,,2013-01-24 22:22:00,
2013-01-24 17:33:00,41.0,10.0,30.43,WNW,300,1.0,3.0,28,0.00,,,0.00,,2013-01-24 22:33:00,
2013-01-24 17:42:00,41.0,10.0,30.43,WNW,300,1.0,3.0,28,0.00,,,0.00,,2013-01-24 22:42:00,
2013-01-24 17:52:00,41.0,13.0,30.44,South,188,1.0,7.0,31,0.00,,,0.00,,2013-01-24 22:52:00,
2013-01-24 18:03:00,39.0,11.0,30.45,ESE,121,0.0,3.0,31,0.00,,,0.00,,2013-01-24 23:03:00,
2013-01-24 18:12:00,39.0,11.0,30.45,ESE,121,0.0,3.0,31,0.00,,,0.00,,2013-01-24 23:12:00,
2013-01-24 18:22:00,36.0,10.0,30.45,SW,222,1.0,4.0,34,0.00,,,0.00,,2013-01-24 23:22:00,
2013-01-24 18:32:00,35.0,12.0,30.45,SW,225,0.0,3.0,38,0.00,,,0.00,,2013-01-24 23:32:00,
2013-01-24 18:42:00,35.0,12.0,30.45,SW,225,0.0,3.0,38,0.00,,,0.00,,2013-01-24 23:42:00,
2013-01-24 18:52:00,34.0,9.0,30.47,SSE,155,3.0,6.0,35,0.00,,,0.00,,2013-01-24 23:52:00,
2013-01-24 19:02:00,34.0,10.0,30.47,SE,136,4.0,6.0,36,0.00,,,0.00,,2013-01-25 00:02:00,
2013-01-24 19:12:00,34.0,10.0,30.47,SE,136,4.0,6.0,36,0.00,,,0.00,,2013-01-25 00:12:00,
2013-01-24 19:22:00,33.0,8.0,30.47,SE,141,4.0,7.0,34,0.00,,,0.00,,2013-01-25 00:22:00,
2013-01-24 19:32:00,32.0,8.0,30.49,ESE,105,1.0,3.0,36,0.00,,,0.00,,2013-01-25 00:32:00,
2013-01-24 19:42:00,32.0,8.0,30.49,ESE,105,1.0,3.0,36,0.00,,,0.00,,2013-01-25 00:42:00,
2013-01-24 19:52:00,31.0,7.0,30.48,WSW,249,0.0,2.0,36,0.00,,,0.00,,2013-01-25 00:52:00,
2013-01-24 20:02:00,30.0,8.0,30.49,ENE,75,0.0,1.0,38,0.00,,,0.00,,2013-01-25 01:02:00,
2013-01-24 20:12:00,30.0,8.0,30.49,ENE,75,0.0,1.0,38,0.00,,,0.00,,2013-01-25 01:12:00,
2013-01-24 20:22:00,31.0,7.0,30.49,ESE,123,1.0,6.0,35,0.00,,,0.00,,2013-01-25 01:22:00,
2013-01-24 20:32:00,30.0,6.0,30.49,SW,235,1.0,5.0,36,0.00,,,0.00,,2013-01-25 01:32:00,
2013-01-24 20:42:00,30.0,6.0,30.49,SW,235,1.0,5.0,36,0.00,,,0.00,,2013-01-25 01:42:00,
2013-01-24 20:52:00,30.0,6.0,30.49,SW,225,2.0,4.0,36,0.00,,,0.00,,2013-01-25 01:52:00,
2013-01-24 21:03:00,30.0,7.0,30.49,SW,227,0.0,4.0,37,0.00,,,0.00,,2013-01-25 02:03:00,
2013-01-24 21:12:00,30.0,7.0,30.49,SW,227,0.0,4.0,37,0.00,,,0.00,,2013-01-25 02:12:00,
2013-01-24 21:22:00,29.0,7.0,30.50,SW,220,2.0,3.0,39,0.00,,,0.00,,2013-01-25 02:22:00,
2013-01-24 21:33:00,28.0,6.0,30.50,SW,228,2.0,6.0,39,0.00,,,0.00,,2013-01-25 02:33:00,
2013-01-24 21:42:00,28.0,6.0,30.50,SW,228,2.0,6.0,39,0.00,,,0.00,,2013-01-25 02:42:00,
2013-01-24 21:52:00,28.0,8.0,30.51,WNW,302,1.0,3.0,42,0.00,,,0.00,,2013-01-25 02:52:00,
2013-01-24 22:02:00,26.0,8.0,30.52,East,96,1.0,6.0,46,0.00,,,0.00,,2013-01-25 03:02:00,
2013-01-24 22:12:00,25.0,8.0,30.52,ENE,78,7.0,10.0,47,0.00,,,0.00,,2013-01-25 03:12:00,
2013-01-24 22:22:00,25.0,8.0,30.52,ENE,78,7.0,10.0,47,0.00,,,0.00,,2013-01-25 03:22:00,
2013-01-24 22:33:00,24.0,8.0,30.52,WSW,257,1.0,6.0,50,0.00,,,0.00,,2013-01-25 03:33:00,
2013-01-24 22:42:00,24.0,8.0,30.52,WSW,257,1.0,6.0,50,0.00,,,0.00,,2013-01-25 03:42:00,
2013-01-24 22:52:00,22.0,7.0,30.52,SE,128,6.0,11.0,52,0.00,,,0.00,,2013-01-25 03:52:00,
2013-01-24 23:02:00,21.0,7.0,30.52,SE,127,5.0,10.0,55,0.00,,,0.00,,2013-01-25 04:02:00,
2013-01-24 23:12:00,21.0,7.0,30.52,SE,127,5.0,10.0,55,0.00,,,0.00,,2013-01-25 04:12:00,
2013-01-24 23:22:00,20.0,7.0,30.52,SSE,151,7.0,11.0,57,0.00,,,0.00,,2013-01-25 04:22:00,
2013-01-24 23:32:00,20.0,8.0,30.53,SE,134,2.0,10.0,58,0.00,,,0.00,,2013-01-25 04:32:00,
2013-01-24 23:42:00,20.0,8.0,30.53,SE,134,2.0,10.0,58,0.00,,,0.00,,2013-01-25 04:42:00,
2013-01-24 23:51:00,19.0,7.0,30.54,ENE,67,0.0,5.0,59,0.00,,,0.00,,2013-01-25 04:51:00,